This demonstration page uses our WeatherBlox Daily Observations layout. Learn more.

Left ArrowRight Arrow

39.08367, -84.50855

Hourly Observations for April 21, 2018

Temp ( °F °C ) Dew Point ( °F °C ) Humidity (%) Winds ( mph kmh ) Pressure ( in mb ) Visibility ( mi km ) Precip ( " mm )
12:53 am 00:53 Clear 39 3.9 36 2.2 89 89 NE 3 6 30.43 1030 10 16 N/A
1:53 am 01:53 Clear 38 3.3 36 2.2 93 93 NE 5 7 30.43 1031 10 16 N/A
2:53 am 02:53 Clear 39 3.9 37 2.8 93 93 N N/A 30.44 1031 10 16 N/A
3:53 am 03:53 Clear 38 3.3 36 2.2 93 93 N N/A 30.45 1031 10 16 N/A
4:53 am 04:53 Clear 36 2.2 35 1.7 97 97 NE 3 6 30.44 1031 10 16 N/A
5:21 am 05:21 Clear with Mist and Fog 35 1.7 35 1.7 100 100 N N/A 30.48 1032 1 2 N/A
5:26 am 05:26 Clear with Mist and Fog 35 1.7 35 1.7 100 100 N N/A 30.48 1032 4 6 N/A
5:53 am 05:53 Clear 35 1.7 35 1.7 100 100 N N/A 30.44 1031 10 16 N/A
6:53 am 06:53 Sunny 35 1.7 34 1.1 96 96 N N/A 30.44 1031 10 16 N/A
7:53 am 07:53 Sunny 37 2.8 35 1.7 93 93 N N/A 30.46 1032 10 16 N/A
8:53 am 08:53 Sunny 44 6.7 31 -0.6 60 60 NE 5 7 30.46 1031 10 16 N/A
9:53 am 09:53 Sunny 49 9.4 30 -1.1 48 48 NNE 5 7 30.46 1032 10 16 N/A
10:53 am 10:53 Sunny 55 12.8 28 -2.2 35 35 NE 8 13 30.44 1031 10 16 N/A
11:53 am 11:53 Sunny 57 13.9 25 -3.9 29 29 NE 6 9 30.42 1030 10 16 N/A
12:53 pm 12:53 Sunny 60 15.6 27 -2.8 28 28 VRB 3 6 30.40 1030 10 16 N/A
1:53 pm 13:53 Sunny 61 16.1 25 -3.9 25 25 N 8 13 30.39 1029 10 16 N/A
2:53 pm 14:53 Sunny 62 16.7 26 -3.3 25 25 NNE 7 11 30.36 1028 10 16 N/A
3:53 pm 15:53 Sunny 62 16.7 28 -2.2 28 28 NNE 8 13 30.34 1028 10 16 N/A
4:53 pm 16:53 Sunny 61 16.1 29 -1.7 30 30 NE 8 13 30.34 1027 10 16 N/A
5:53 pm 17:53 Sunny 61 16.1 28 -2.2 29 29 NE 8 13 30.33 1027 10 16 N/A
6:53 pm 18:53 Sunny 59 15 31 -0.6 35 35 NE 12 19 30.32 1027 10 16 N/A
7:53 pm 19:53 Sunny 56 13.3 30 -1.1 37 37 NNE 12 19 30.33 1027 10 16 N/A
8:53 pm 20:53 Clear 53 11.7 29 -1.7 40 40 NE 6 9 30.32 1027 10 16 N/A
9:53 pm 21:53 Clear 52 11.1 30 -1.1 43 43 NE 7 11 30.34 1027 10 16 N/A
10:53 pm 22:53 Clear 50 10 38 3.3 63 63 NE 3 6 30.34 1028 10 16 N/A
11:53 pm 23:53 Clear 50 10 32 undefined 50 50 NE 5 7 30.32 1027 10 16 N/A

Powered by AerisWeather